This demonstration page uses our WeatherBlox Daily Observations layout. Learn more.

38.89511, -77.03637

Hourly Observations for October 28, 2020

Temp ( °F °C ) Dew Point ( °F °C ) Humidity (%) Winds ( mph kmh ) Pressure ( in mb ) Visibility ( mi km ) Precip ( " mm )
12:00 am 00:00 Cloudy 62 16.7 58 14.4 86 86 SE 6 9 30.14 1021 10 16.0934 0 0
12:52 am 00:52 Cloudy 62 16.7 59 15 90 90 S 5 7 30.13 1020 10 16.0934 0 0
1:14 am 01:14 Cloudy 62 16.7 59 15 90 90 S 8 13 30.13 1020 7 11.26538 0 0
1:52 am 01:52 Cloudy 62 16.7 59 15 90 90 S 9 15 30.11 1020 7 11.26538 0 0
2:16 am 02:16 Cloudy 62 16.7 59 15 90 90 S 8 13 30.12 1020 9 14.48406 0 0
2:52 am 02:52 Cloudy 62 16.7 59 15 90 90 S 7 11 30.11 1020 10 16.0934 0 0
3:47 am 03:47 Cloudy 63 17 59 15 88 88 S 9 15 30.08 1019 10 16.0934 0 0
3:52 am 03:52 Cloudy 62 16.7 59 15 90 90 S 9 15 30.07 1018 10 16.0934 0 0
4:52 am 04:52 Cloudy with Mist and Fog 62 16.7 60 15.6 93 93 S 13 20 30.05 1018 6 9.65604 0 0
5:17 am 05:17 Cloudy with Mist and Fog 62 16.7 60 15.6 93 93 S 10 17 30.05 1018 3 4.82802 0 0
5:52 am 05:52 Cloudy with Mist and Fog 62 16.7 60 15.6 93 93 SW 8 13 30.06 1018 4 6.43736 0 0
6:06 am 06:06 Cloudy with Mist and Fog 62 16.7 60 15.6 93 93 SW 9 15 30.06 1018 4 6.43736 0 0
6:52 am 06:52 Cloudy with Mist and Fog 62 16.7 60 15.6 93 93 SSW 12 19 30.05 1018 6 9.65604 0 0
7:52 am 07:52 Cloudy 63 17.2 60 15.6 90 90 SSW 10 17 30.04 1017 7 11.26538 0 0
8:52 am 08:52 Cloudy 64 17.8 60 15.6 87 87 SSW 10 17 30.05 1018 7 11.26538 0 0
9:52 am 09:52 Cloudy 65 18.3 60 15.6 84 84 SW 9 15 30.05 1018 7 11.26538 0 0
10:52 am 10:52 Cloudy 66 18.9 61 16.1 84 84 SSW 10 17 30.05 1018 10 16.0934 0 0
11:52 am 11:52 Cloudy 67 19.4 61 16.1 81 81 SW 5 7 30.04 1017 10 16.0934 0 0
12:10 pm 12:10 Cloudy 68 20 61 16.1 78 78 SW 6 9 30.03 1017 10 16.0934 0 0
12:22 pm 12:22 Cloudy 68 20 61 16.1 78 78 WSW 5 7 30.03 1017 10 16.0934 0 0
12:52 pm 12:52 Cloudy 69 20.6 62 16.7 78 78 SE 3 6 30.02 1017 10 16.0934 0 0
1:52 pm 13:52 Cloudy 69 20.6 62 16.7 78 78 S 5 7 30 1016 10 16.0934 0 0
2:52 pm 14:52 Cloudy 70 21.1 62 16.7 76 76 Calm 29.97 1015 10 16.0934 0 0
3:13 pm 15:13 Mostly Cloudy 70 21.1 63 17.2 79 79 S 5 7 29.97 1015 10 16.0934 0 0
3:24 pm 15:24 Mostly Cloudy 70 21.1 64 17.8 82 82 SSE 5 7 29.97 1015 10 16.0934 0 0
3:52 pm 15:52 Mostly Cloudy 70 21.1 64 17.8 82 82 S 7 11 29.96 1015 10 16.0934 0 0
4:52 pm 16:52 Mostly Cloudy 69 20.6 63 17.2 81 81 S 6 9 29.96 1015 10 16.0934 0 0
5:52 pm 17:52 Mostly Cloudy 69 20.6 63 17.2 81 81 S 3 6 29.96 1015 10 16.0934 0 0
6:52 pm 18:52 Mostly Cloudy 68 20 63 17.2 84 84 S 3 6 29.98 1015 10 16.0934 0 0
7:52 pm 19:52 Mostly Cloudy 67 19.4 64 17.8 91 91 NE 3 6 29.98 1015 10 16.0934 0 0
8:52 pm 20:52 Mostly Cloudy 66 18.9 63 17.2 90 90 Calm 29.98 1015 9 14.48406 0 0
9:52 pm 21:52 Mostly Cloudy 66 18.9 63 17.2 90 90 Calm 29.97 1015 9 14.48406 0 0
10:29 pm 22:29 Cloudy 66 18.9 64 17.8 93 93 NNE 5 7 29.98 1015 8 12.87472 0 0
10:52 pm 22:52 Cloudy 67 19.4 63 17.2 87 87 NE 9 15 29.96 1015 9 14.48406 0 0
11:07 pm 23:07 Cloudy 66 18.9 63 17.2 90 90 NE 12 19 29.97 1015 7 11.26538 0 0
11:15 pm 23:15 Cloudy 66 18.9 63 17.2 90 90 NE 10 17 29.97 1015 7 11.26538 0 0
11:25 pm 23:25 Cloudy 66 18.9 63 17.2 90 90 NE 12 19 29.97 1015 7 11.26538 0 0
11:32 pm 23:32 Cloudy 65 18.3 62 16.7 90 90 NE 12 19 29.97 1015 7 11.26538 0 0
11:52 pm 23:52 Cloudy 64 17.8 61 16.1 90 90 NE 12 19 29.96 1015 7 11.26538 0 0

Powered by AerisWeather